Home > Time Zones > World Clock > Weather > Spain > Ibiza > Past weeks

Flag for Spain Weather past 2 weeks in Ibiza, Ibiza, Spain

Now
75 °F

Scattered clouds.


Feels Like: 77 °F
Forecast: 73 / 80 °F
Wind: 13 mph from East

Location: Ibiza / Es Codola

Current Time: Oct 1, 2014 at 11:06:01 AM

Latest Report: Oct 1, 2014 at 10:30 AM


Visibility: N/A

Pressure: 30.24 "Hg

Humidity: 74%

Dew point: 66 °F

Location of IbizaLocation

Historic Weather in Ibiza — Graph

°F

Ibiza temperature yesterday

Maximum temperature yesterday: 81 °F (at 12:30 PM)
Minimum temperature yesterday: 68 °F (at 6:00 AM)
Average temperature yesterday: 74 °F

Past Weeks' High & Low Weather Summary

 TemperatureHumidityPressure
High88 °F (Sep 18, 3:30 PM)94% (Sep 22, 5:00 PM)30.24 "Hg (Sep 22, 5:00 PM)
Low64 °F (Sep 27, 6:00 AM)33% (Sep 18, 3:30 PM)29.74 "Hg (Sep 16, 7:00 PM)
Average76 °F74%30.00 "Hg
* Reported Sep 16 9:00 AM — Oct 1 9:30 AM, Ibiza, Weather by CustomWeather, © 2014

Note: Actual official high and low records may vary slightly from our data, if they occured in-between our weather recording intervals... More about our weather records

Advertising

Ibiza weather history for previous 24 hours

 ConditionsComfort  
Time TempWeatherWind HumidityBarometerVisibility
9:30 AM
Oct 1
73 °FPassing clouds.12 mph83%30.21 "HgN/A
9:00 AM73 °FPassing clouds.8 mph83%30.21 "HgN/A
8:30 AM72 °FPassing clouds.3 mph88%30.24 "HgN/A
8:00 AM72 °FPassing clouds.6 mph88%30.21 "HgN/A
7:30 AM72 °FPassing clouds.6 mph88%30.21 "HgN/A
7:00 AM72 °FPassing clouds.7 mph88%30.21 "HgN/A
6:30 AM70 °FPassing clouds.3 mph94%30.21 "HgN/A
6:00 AM72 °FPassing clouds.9 mph88%30.21 "HgN/A
5:30 AM73 °FPassing clouds.10 mph83%30.18 "HgN/A
4:00 AM72 °FPassing clouds.6 mph88%30.21 "HgN/A
3:30 AM73 °FPassing clouds.7 mph78%30.21 "HgN/A
3:00 AM73 °FPassing clouds.6 mph83%30.21 "HgN/A
2:30 AM72 °FPassing clouds.6 mph83%30.21 "HgN/A
2:00 AM73 °FPassing clouds.5 mph78%30.21 "HgN/A
1:30 AM73 °FPassing clouds.6 mph78%30.21 "HgN/A
1:00 AM72 °FPassing clouds.6 mph83%30.21 "HgN/A
12:30 AM72 °FPassing clouds.2 mph83%30.21 "HgN/A
12:00 AM72 °FPassing clouds.6 mph83%30.21 "HgN/A
11:30 PM
Sep 30
72 °FPassing clouds.5 mph83%30.21 "HgN/A
10:30 PM72 °FPassing clouds.5 mph83%30.21 "HgN/A
10:00 PM73 °FPassing clouds.2 mph78%30.24 "HgN/A
9:30 PM73 °FPassing clouds.1 mph78%30.24 "HgN/A
9:00 PM73 °FPassing clouds.2 mph78%30.24 "HgN/A
8:30 PM73 °FSunny.3 mph78%30.21 "Hg10 mi
8:00 PM73 °FSunny.5 mph78%30.21 "Hg10 mi
7:30 PM75 °FSunny.9 mph74%30.18 "Hg10 mi
7:00 PM77 °FSunny.10 mph65%30.18 "Hg10 mi
6:30 PM77 °FPassing clouds.8 mph69%30.18 "HgN/A
6:00 PM77 °FPassing clouds.10 mph69%30.18 "HgN/A
5:30 PM79 °FPassing clouds.12 mph65%30.18 "HgN/A
5:00 PM79 °FPassing clouds.15 mph65%30.15 "HgN/A
4:30 PM79 °FScattered clouds.2 mph70%30.15 "HgN/A
4:00 PM79 °FScattered clouds.3 mph70%30.18 "HgN/A
3:30 PM81 °FPassing clouds.6 mph70%30.18 "HgN/A
3:00 PM81 °FPassing clouds.7 mph62%30.18 "HgN/A
2:30 PM81 °FPassing clouds.7 mph62%30.18 "HgN/A
2:00 PM81 °FPassing clouds.8 mph62%30.21 "HgN/A
1:30 PM81 °FPassing clouds.6 mph62%30.21 "HgN/A
1:00 PM81 °FPassing clouds.6 mph62%30.21 "HgN/A
12:30 PM81 °FPassing clouds.3 mph62%30.21 "HgN/A
12:00 PM79 °FPassing clouds.3 mph70%30.21 "HgN/A
11:30 AM77 °FPassing clouds.7 mph74%30.21 "HgN/A
11:00 AM75 °FPassing clouds.8 mph78%30.21 "HgN/A
Weather by CustomWeather, © 2014

See weather overviewHow to use our weather pages